Location: Asheville, NC
(35.6000°N, 82.5500°W)
Time: 04:15:43
(UTC-05:00)

CUTE 1.7 + AOD 2 - Pass Details

Date: 03 January 2018
Orbit: 594 x 613 km, 97.6° (Epoch: 18 January)

Event Time Altitude Azimuth Distance (km) Brightness Sun altitude
Rises 18:30:18 0° 159° (SSE) 2,859 ? -12.1°
Reaches altitude 10° 18:32:29 10° 156° (SSE) 1,960 ? -12.5°
Maximum altitude 18:36:41 62° 76° (ENE) 693 ? -13.3°
Drops below altitude 10° 18:40:55 10° 356° (N) 1,973 ? -14.2°
Sets 18:43:08 0° 353° (N) 2,881 ? -14.6°
